Tracking 31027 objects as of 19-Jul-2025
HD Live streaming from Space Station
objects crossing your sky now

COSMOS 2251 DEB

Track COSMOS 2251 DEB now!
10-day predictions


NORAD ID: 36371
Int'l Code: 1993-036AYY
Perigee: 669.1 km
Apogee: 689.1 km
Inclination: 74.0 °
Period: 98.2 minutes
Semi major axis: 7050 km
RCS: 0.0064 m2 (small)
Launch date: June 16, 1993
Source: Commonwealth of Independent States (former USSR) (CIS)
Launch site: PLESETSK MISSILE AND SPACE COMPLEX (PKMTR)

Note: This is SATELLITE DEBRIS
Your satellite tracking list
No more satellites can be added for tracking (max 5)
SPACE STATION
EYESAT-1
SAUDISAT 1C
FOX-1B (RADFXSAT AO-91)
DOSAAF-85 (RS-44)
Track 5 satellite(s)




NASA's NSSDC Master Catalog

Two Line Element Set (TLE):
1 36371U 93036AYY 25195.98360615  .00004760  00000-0  86092-3 0  9996
2 36371  74.0147  93.4313 0014239 178.2575 181.8646 14.66592593692328
Source of the keplerian elements: AFSPC